{"data":{"norad_id":48049,"epoch":"2026-05-25T01:28:53.898816Z","epoch_age_seconds":59749,"freshness":"FRESH","line1":"1 48049U 21025H   26145.06173494 -.00000284  00000+0 -81270-3 0  9993","line2":"2 48049  87.8941 324.8338 0001630  92.2230 267.9086 13.13468866250464","mean_motion":13.13468866,"eccentricity":0.000163,"inclination_deg":87.8941,"raan_deg":324.8338,"arg_perigee_deg":92.223,"mean_anomaly_deg":267.9086,"bstar":-0.0008127,"rev_number":25046,"period_min":109.63335616666,"perigee_km":1208.5329385044,"apogee_km":1211.0065961105,"semimajor_km":7587.9067673075,"source":"CELESTRAK","updated_at":"2026-05-25T13:38:22.388873Z"}}